| time (UTC) | temp F | wind direction | speed MPH | gust MPH | rain 1hr in | rain 24hr in | rain mn in | humidity % | barometer mb |
| 20260504043657 | 47 | 243 | 4.0 | 4.0 | 0.00 | 0.00 | 0.18 | 93 | 1003.1 |
| 20260504043151 | 47 | 180 | 1.0 | 2.0 | 0.00 | 0.00 | 0.18 | 93 | 1003.0 |
| 20260504042646 | 47 | 135 | 0.0 | 0.0 | 0.00 | 0.00 | 0.18 | 93 | 1003.1 |
| 20260504042141 | 46 | 135 | 0.0 | 2.0 | 0.00 | 0.00 | 0.18 | 92 | 1003.0 |
| 20260504041636 | 46 | 135 | 2.0 | 2.0 | 0.00 | 0.00 | 0.18 | 92 | 1003.0 |
| 20260504041131 | 46 | 135 | 0.0 | 0.0 | 0.00 | 0.00 | 0.18 | 92 | 1003.0 |
| 20260504040625 | 46 | 135 | 0.0 | 0.0 | 0.00 | 0.00 | 0.18 | 92 | 1003.1 |
| 20260504040120 | 46 | 135 | 0.0 | 0.0 | 0.00 | 0.00 | 0.18 | 92 | 1002.9 |
| 20260504035615 | 46 | 135 | 0.0 | 0.0 | 0.00 | 0.00 | 0.18 | 92 | 1003.0 |
| 20260504035110 | 46 | 135 | 0.0 | 1.0 | 0.00 | 0.00 | 0.18 | 92 | 1003.0 |
| 20260504034605 | 46 | 135 | 2.0 | 3.0 | 0.00 | 0.00 | 0.18 | 91 | 1002.9 |
| 20260504034059 | 47 | 225 | 3.0 | 3.0 | 0.00 | 0.00 | 0.18 | 91 | 1003.1 |
| 20260504033554 | 47 | 225 | 1.0 | 1.0 | 0.00 | 0.00 | 0.18 | 92 | 1003.1 |
| 20260504033049 | 47 | 225 | 1.0 | 2.0 | 0.00 | 0.00 | 0.18 | 91 | 1003.1 |
| 20260504032544 | 47 | 40 | 1.0 | 3.0 | 0.00 | 0.00 | 0.18 | 91 | 1003.2 |
| 20260504032039 | 48 | 328 | 0.0 | 5.0 | 0.00 | 0.00 | 0.18 | 92 | 1003.2 |
| 20260504031533 | 48 | 270 | 2.0 | 5.0 | 0.00 | 0.00 | 0.18 | 91 | 1003.3 |
| 20260504031028 | 48 | 270 | 4.0 | 6.0 | 0.00 | 0.00 | 0.18 | 91 | 1003.2 |
| 20260504030523 | 48 | 270 | 3.0 | 8.0 | 0.00 | 0.00 | 0.18 | 92 | 1003.3 |
| 20260504030018 | 48 | 180 | 1.0 | 2.0 | 0.00 | 0.00 | 0.18 | 92 | 1003.4 |
| 20260504025513 | 48 | 135 | 2.0 | 2.0 | 0.00 | 0.00 | 0.18 | 91 | 1003.3 |
| 20260504025007 | 48 | 135 | 1.0 | 1.0 | 0.00 | 0.00 | 0.18 | 91 | 1003.4 |
| 20260504024502 | 48 | 135 | 1.0 | 1.0 | 0.00 | 0.00 | 0.18 | 91 | 1003.4 |
| 20260504023957 | 48 | 180 | 1.0 | 2.0 | 0.00 | 0.00 | 0.18 | 91 | 1003.4 |
| 20260504023452 | 48 | 180 | 1.0 | 2.0 | 0.00 | 0.00 | 0.18 | 91 | 1003.4 |
| 20260504022947 | 48 | 180 | 2.0 | 2.0 | 0.00 | 0.00 | 0.18 | 91 | 1003.5 |
| 20260504022441 | 48 | 180 | 2.0 | 2.0 | 0.00 | 0.00 | 0.18 | 91 | 1003.5 |
| 20260504021936 | 48 | 135 | 2.0 | 2.0 | 0.00 | 0.00 | 0.18 | 91 | 1003.5 |
| 20260504021431 | 48 | 135 | 1.0 | 2.0 | 0.00 | 0.00 | 0.18 | 91 | 1003.6 |
| 20260504020926 | 48 | 180 | 1.0 | 2.0 | 0.00 | 0.00 | 0.17 | 91 | 1003.6 |
| 20260504020421 | 48 | 135 | 1.0 | 2.0 | 0.00 | 0.00 | 0.17 | 91 | 1003.6 |
| 20260504015915 | 48 | 135 | 1.0 | 2.0 | 0.00 | 0.00 | 0.17 | 91 | 1003.7 |
| 20260504015410 | 48 | 180 | 2.0 | 3.0 | 0.00 | 0.00 | 0.17 | 91 | 1003.8 |
| 20260504014905 | 49 | 180 | 2.0 | 3.0 | 0.00 | 0.00 | 0.17 | 91 | 1003.8 |
| 20260504014400 | 49 | 180 | 2.0 | 2.0 | 0.00 | 0.00 | 0.17 | 91 | 1003.8 |
| 20260504013855 | 49 | 180 | 2.0 | 2.0 | 0.00 | 0.00 | 0.17 | 91 | 1003.8 |
| 20260504013349 | 49 | 225 | 2.0 | 2.0 | 0.00 | 0.00 | 0.17 | 91 | 1003.8 |
| 20260504012844 | 49 | 180 | 1.0 | 2.0 | 0.00 | 0.00 | 0.17 | 91 | 1003.8 |
| 20260504012339 | 49 | 180 | 2.0 | 2.0 | 0.00 | 0.00 | 0.17 | 90 | 1003.9 |
| 20260504011834 | 49 | 180 | 2.0 | 3.0 | 0.00 | 0.00 | 0.16 | 90 | 1003.9 |
| 20260504011329 | 49 | 225 | 2.0 | 4.0 | 0.00 | 0.00 | 0.16 | 90 | 1003.9 |
| 20260504010824 | 49 | 225 | 2.0 | 3.0 | 0.00 | 0.00 | 0.15 | 91 | 1003.9 |
| 20260504010318 | 49 | 220 | 2.0 | 4.0 | 0.00 | 0.00 | 0.15 | 90 | 1003.9 |
| 20260504005813 | 49 | 189 | 2.0 | 3.0 | 0.00 | 0.00 | 0.14 | 90 | 1004.0 |
| 20260504005308 | 49 | 180 | 2.0 | 3.0 | 0.00 | 0.00 | 0.14 | 90 | 1004.0 |
| 20260504004803 | 49 | 180 | 4.0 | 5.0 | 0.00 | 0.00 | 0.14 | 90 | 1004.1 |
| 20260504004257 | 49 | 180 | 4.0 | 4.0 | 0.00 | 0.00 | 0.13 | 90 | 1004.2 |
| 20260504003752 | 49 | 198 | 3.0 | 4.0 | 0.00 | 0.00 | 0.12 | 90 | 1004.2 |
| 20260504003247 | 49 | 180 | 5.0 | 6.0 | 0.00 | 0.00 | 0.12 | 90 | 1004.3 |
| 20260504002742 | 49 | 180 | 4.0 | 6.0 | 0.00 | 0.00 | 0.12 | 89 | 1004.3 |
| 20260504002237 | 49 | 175 | 4.0 | 5.0 | 0.00 | 0.00 | 0.11 | 89 | 1004.2 |
| 20260504001732 | 49 | 180 | 3.0 | 4.0 | 0.00 | 0.00 | 0.11 | 89 | 1004.2 |
| 20260504001226 | 49 | 171 | 2.0 | 2.0 | 0.00 | 0.00 | 0.11 | 89 | 1004.4 |
| 20260504000721 | 49 | 162 | 2.0 | 2.0 | 0.00 | 0.00 | 0.11 | 89 | 1004.4 |
| 20260504000219 | 48 | 135 | 1.0 | 1.0 | 0.00 | 0.00 | 0.11 | 89 | 1004.5 |
| 20260503235711 | 48 | 157 | 1.0 | 1.0 | 0.00 | 0.00 | 0.09 | 89 | 1004.6 |
| 20260503235206 | 48 | 180 | 0.0 | 1.0 | 0.00 | 0.00 | 0.09 | 89 | 1004.6 |
| 20260503234700 | 49 | 180 | 1.0 | 2.0 | 0.00 | 0.00 | 0.08 | 89 | 1004.6 |
| 20260503234155 | 48 | 180 | 1.0 | 2.0 | 0.00 | 0.00 | 0.08 | 89 | 1004.6 |
| 20260503233650 | 48 | 135 | 1.0 | 1.0 | 0.00 | 0.00 | 0.07 | 88 | 1004.7 |
| 20260503233145 | 49 | 135 | 0.0 | 0.0 | 0.00 | 0.00 | 0.07 | 89 | 1004.7 |
| 20260503232640 | 49 | 135 | 0.0 | 0.0 | 0.00 | 0.00 | 0.06 | 89 | 1004.7 |
| 20260503232134 | 49 | 135 | 0.0 | 0.0 | 0.00 | 0.00 | 0.06 | 88 | 1004.8 |
| 20260503231629 | 49 | 180 | 0.0 | 0.0 | 0.00 | 0.00 | 0.05 | 88 | 1004.9 |
| 20260503231124 | 49 | 180 | 0.0 | 1.0 | 0.00 | 0.00 | 0.05 | 88 | 1004.9 |
| 20260503230619 | 48 | 135 | 0.0 | 2.0 | 0.00 | 0.00 | 0.05 | 88 | 1004.9 |
| 20260503230114 | 48 | 135 | 1.0 | 3.0 | 0.00 | 0.00 | 0.05 | 88 | 1005.0 |
| 20260503225608 | 48 | 180 | 1.0 | 3.0 | 0.00 | 0.00 | 0.04 | 88 | 1005.2 |
| 20260503225103 | 48 | 180 | 4.0 | 5.0 | 0.00 | 0.00 | 0.04 | 87 | 1005.2 |
| 20260503224558 | 48 | 180 | 3.0 | 3.0 | 0.00 | 0.00 | 0.04 | 87 | 1005.3 |
| 20260503224053 | 48 | 193 | 2.0 | 4.0 | 0.00 | 0.00 | 0.03 | 88 | 1005.4 |
| 20260503223548 | 48 | 180 | 2.0 | 2.0 | 0.00 | 0.00 | 0.03 | 88 | 1005.5 |
| 20260503223042 | 48 | 180 | 1.0 | 2.0 | 0.00 | 0.00 | 0.03 | 87 | 1005.4 |
| 20260503222537 | 48 | 135 | 1.0 | 2.0 | 0.00 | 0.00 | 0.02 | 87 | 1005.3 |
| 20260503222033 | 48 | 180 | 2.0 | 2.0 | 0.00 | 0.00 | 0.02 | 87 | 1005.2 |
| 20260503221527 | 48 | 180 | 1.0 | 1.0 | 0.00 | 0.00 | 0.02 | 87 | 1005.1 |
| 20260503221022 | 48 | 180 | 2.0 | 2.0 | 0.00 | 0.00 | 0.02 | 87 | 1005.0 |
| 20260503220516 | 49 | 180 | 2.0 | 2.0 | 0.00 | 0.00 | 0.01 | 87 | 1005.0 |
| 20260503220011 | 49 | 135 | 1.0 | 1.0 | 0.00 | 0.00 | 0.01 | 87 | 1004.9 |
| 20260503215506 | 49 | 90 | 0.0 | 0.0 | 0.00 | 0.00 | 0.01 | 87 | 1004.9 |
| 20260503215001 | 49 | 90 | 0.0 | 0.0 | 0.00 | 0.00 | 0.01 | 87 | 1005.0 |
| 20260503214456 | 49 | 90 | 0.0 | 2.0 | 0.00 | 0.00 | 0.00 | 86 | 1005.1 |
| 20260503213950 | 49 | 90 | 0.0 | 1.0 | 0.00 | 0.00 | 0.00 | 86 | 1005.2 |
| 20260503213445 | 49 | 90 | 1.0 | 2.0 | 0.00 | 0.00 | 0.00 | 86 | 1005.3 |
| 20260503212940 | 49 | 135 | 2.0 | 3.0 | 0.00 | 0.00 | 0.00 | 86 | 1005.3 |
| 20260503212435 | 49 | 135 | 2.0 | 3.0 | 0.00 | 0.00 | 0.00 | 86 | 1005.4 |
| 20260503211930 | 49 | 139 | 3.0 | 4.0 | 0.00 | 0.00 | 0.00 | 86 | 1005.5 |
| 20260503211424 | 49 | 180 | 5.0 | 5.0 | 0.00 | 0.00 | 0.00 | 86 | 1005.6 |
| 20260503210919 | 49 | 180 | 5.0 | 7.0 | 0.00 | 0.00 | 0.00 | 86 | 1005.7 |
| 20260503210414 | 49 | 180 | 4.0 | 6.0 | 0.00 | 0.00 | 0.00 | 86 | 1005.8 |
| 20260503205909 | 49 | 180 | 4.0 | 5.0 | 0.00 | 0.00 | 0.00 | 86 | 1005.7 |
| 20260503205404 | 49 | 175 | 4.0 | 5.0 | 0.00 | 0.00 | 0.00 | 85 | 1005.8 |
| 20260503204858 | 49 | 180 | 4.0 | 5.0 | 0.00 | 0.00 | 0.00 | 85 | 1005.7 |
| 20260503204353 | 49 | 166 | 6.0 | 8.0 | 0.00 | 0.00 | 0.00 | 85 | 1005.7 |
| 20260503203848 | 49 | 166 | 4.0 | 6.0 | 0.00 | 0.00 | 0.00 | 85 | 1005.9 |
| 20260503203343 | 49 | 171 | 5.0 | 8.0 | 0.00 | 0.00 | 0.00 | 85 | 1005.9 |
| 20260503202838 | 49 | 171 | 5.0 | 10.0 | 0.00 | 0.00 | 0.00 | 85 | 1006.0 |
| 20260503202332 | 49 | 175 | 7.0 | 9.0 | 0.00 | 0.00 | 0.00 | 85 | 1006.1 |
| 20260503201827 | 49 | 166 | 5.0 | 9.0 | 0.00 | 0.00 | 0.00 | 85 | 1006.2 |
| 20260503201323 | 49 | 153 | 5.0 | 9.0 | 0.00 | 0.00 | 0.00 | 85 | 1006.3 |
| 20260503200817 | 49 | 180 | 10.0 | 10.0 | 0.00 | 0.00 | 0.00 | 84 | 1006.1 |
| 20260503200312 | 49 | 180 | 12.0 | 12.0 | 0.00 | 0.00 | 0.00 | 84 | 1006.4 |
| 20260503195806 | 49 | 175 | 5.0 | 8.0 | 0.00 | 0.00 | 0.00 | 84 | 1006.5 |
| 20260503195301 | 49 | 184 | 8.0 | 8.0 | 0.00 | 0.00 | 0.00 | 84 | 1006.5 |
| 20260503194757 | 49 | 180 | 5.0 | 8.0 | 0.00 | 0.00 | 0.00 | 83 | 1006.5 |
| 20260503194251 | 50 | 180 | 5.0 | 10.0 | 0.00 | 0.00 | 0.00 | 84 | 1006.5 |
| 20260503193746 | 50 | 180 | 9.0 | 10.0 | 0.00 | 0.00 | 0.00 | 83 | 1006.5 |
| 20260503193241 | 50 | 148 | 10.0 | 13.0 | 0.00 | 0.00 | 0.00 | 82 | 1006.6 |
| 20260503192735 | 49 | 193 | 6.0 | 10.0 | 0.00 | 0.00 | 0.00 | 82 | 1006.6 |
| 20260503192231 | 49 | 180 | 5.0 | 7.0 | 0.00 | 0.00 | 0.00 | 82 | 1006.6 |
| 20260503191725 | 49 | 153 | 4.0 | 6.0 | 0.00 | 0.00 | 0.00 | 81 | 1006.6 |
| 20260503191220 | 49 | 180 | 4.0 | 6.0 | 0.00 | 0.00 | 0.00 | 81 | 1006.6 |
| 20260503190714 | 49 | 171 | 4.0 | 5.0 | 0.00 | 0.00 | 0.28 | 81 | 1006.5 |
| 20260503190209 | 49 | 171 | 4.0 | 5.0 | 0.00 | 0.00 | 0.28 | 81 | 1006.6 |
| 20260503185705 | 49 | 180 | 3.0 | 6.0 | 0.00 | 0.00 | 0.28 | 81 | 1006.6 |
| 20260503185159 | 49 | 144 | 3.0 | 4.0 | 0.00 | 0.00 | 0.28 | 81 | 1006.6 |
| 20260503184654 | 49 | 135 | 1.0 | 3.0 | 0.00 | 0.00 | 0.28 | 81 | 1006.6 |
| 20260503184149 | 49 | 171 | 1.0 | 2.0 | 0.00 | 0.00 | 0.28 | 81 | 1006.6 |
| 20260503183643 | 50 | 135 | 3.0 | 3.0 | 0.00 | 0.00 | 0.28 | 81 | 1006.5 |
| 20260503183139 | 50 | 180 | 2.0 | 5.0 | 0.00 | 0.00 | 0.28 | 81 | 1006.5 |
| 20260503182633 | 50 | 171 | 5.0 | 6.0 | 0.00 | 0.00 | 0.28 | 80 | 1006.5 |
| 20260503182128 | 50 | 180 | 4.0 | 4.0 | 0.00 | 0.00 | 0.28 | 80 | 1006.6 |
| 20260503181623 | 50 | 153 | 4.0 | 5.0 | 0.00 | 0.00 | 0.28 | 79 | 1006.6 |
| 20260503181117 | 50 | 180 | 4.0 | 8.0 | 0.00 | 0.00 | 0.28 | 79 | 1006.6 |
| 20260503180613 | 50 | 180 | 4.0 | 6.0 | 0.00 | 0.00 | 0.28 | 79 | 1006.7 |
| 20260503180107 | 50 | 162 | 2.0 | 4.0 | 0.00 | 0.00 | 0.28 | 79 | 1006.7 |
| 20260503175602 | 50 | 171 | 4.0 | 6.0 | 0.00 | 0.00 | 0.28 | 79 | 1006.8 |
| 20260503175057 | 50 | 184 | 4.0 | 5.0 | 0.00 | 0.00 | 0.28 | 79 | 1006.7 |
| 20260503174551 | 50 | 180 | 4.0 | 6.0 | 0.00 | 0.00 | 0.28 | 79 | 1006.8 |
| 20260503174047 | 50 | 180 | 4.0 | 7.0 | 0.00 | 0.00 | 0.28 | 78 | 1006.9 |
| 20260503173541 | 51 | 180 | 7.0 | 7.0 | 0.00 | 0.00 | 0.28 | 78 | 1006.9 |
| 20260503173036 | 51 | 153 | 4.0 | 10.0 | 0.00 | 0.00 | 0.28 | 78 | 1006.8 |
| 20260503172531 | 51 | 189 | 5.0 | 9.0 | 0.00 | 0.00 | 0.28 | 77 | 1006.9 |
| 20260503172025 | 51 | 189 | 7.0 | 11.0 | 0.00 | 0.00 | 0.28 | 78 | 1007.0 |
| 20260503171521 | 51 | 180 | 8.0 | 9.0 | 0.00 | 0.00 | 0.28 | 77 | 1007.0 |
| 20260503171015 | 51 | 166 | 6.0 | 8.0 | 0.00 | 0.00 | 0.28 | 77 | 1007.1 |
| 20260503170510 | 51 | 180 | 6.0 | 7.0 | 0.00 | 0.00 | 0.28 | 76 | 1007.0 |
| 20260503150808 | 52 | 180 | 7.0 | 13.0 | 0.00 | 0.00 | 0.28 | 72 | 1007.8 |
| 20260503150302 | 52 | 180 | 7.0 | 12.0 | 0.00 | 0.00 | 0.28 | 73 | 1007.9 |
| 20260503140200 | 54 | 193 | 13.0 | 16.0 | 0.00 | 0.00 | 0.27 | 66 | 1008.0 |
| 20260503131108 | 57 | 180 | 10.0 | 16.0 | 0.00 | 0.00 | 0.22 | 65 | 1008.3 |
| 20260503130603 | 57 | 180 | 12.0 | 12.0 | 0.00 | 0.00 | 0.22 | 66 | 1008.2 |
| 20260503110358 | 51 | 225 | 9.0 | 12.0 | 0.00 | 0.00 | 0.22 | 76 | 1008.6 |
| 20260503100256 | 49 | 270 | 6.0 | 12.0 | 0.00 | 0.00 | 0.22 | 83 | 1008.7 |
| 20260503090153 | 49 | 306 | 4.0 | 9.0 | 0.00 | 0.00 | 0.09 | 85 | 1008.3 |
| 20260503081606 | 49 | 261 | 7.0 | 10.0 | 0.00 | 0.00 | 0.08 | 83 | 1008.4 |
| 20260503081101 | 49 | 243 | 10.0 | 11.0 | 0.00 | 0.00 | 0.08 | 83 | 1008.4 |
| 20260503080556 | 49 | 247 | 4.0 | 10.0 | 0.00 | 0.00 | 0.08 | 83 | 1008.3 |
| 20260503072514 | 50 | 261 | 8.0 | 10.0 | 0.00 | 0.00 | 0.07 | 83 | 1008.0 |
| 20260503072009 | 50 | 310 | 5.0 | 7.0 | 0.00 | 0.00 | 0.07 | 83 | 1007.8 |
| 20260503071504 | 49 | 270 | 6.0 | 10.0 | 0.00 | 0.00 | 0.07 | 83 | 1007.7 |
| 20260503070959 | 49 | 225 | 6.0 | 11.0 | 0.00 | 0.00 | 0.07 | 83 | 1007.6 |
| 20260503070454 | 49 | 243 | 6.0 | 11.0 | 0.00 | 0.00 | 0.07 | 82 | 1007.7 |
| 20260503054836 | 49 | 225 | 3.0 | 8.0 | 0.00 | 0.00 | 0.05 | 82 | 1007.6 |
| 20260503054330 | 49 | 234 | 5.0 | 7.0 | 0.00 | 0.00 | 0.05 | 81 | 1007.5 |
| 20260503053825 | 49 | 243 | 7.0 | 9.0 | 0.00 | 0.00 | 0.00 | 82 | 1007.5 |
| 20260503053320 | 49 | 216 | 5.0 | 8.0 | 0.00 | 0.00 | 0.00 | 82 | 1007.5 |
| 20260503052815 | 49 | 225 | 6.0 | 8.0 | 0.00 | 0.00 | 0.00 | 83 | 1007.5 |
| 20260503052310 | 49 | 252 | 5.0 | 5.0 | 0.00 | 0.00 | 0.00 | 82 | 1007.4 |
| 20260503051804 | 49 | 247 | 3.0 | 7.0 | 0.00 | 0.00 | 0.00 | 82 | 1007.5 |
| 20260503051259 | 49 | 0 | 1.0 | 8.0 | 0.00 | 0.00 | 0.00 | 82 | 1007.4 |
| 20260503050754 | 49 | 274 | 4.0 | 14.0 | 0.00 | 0.00 | 0.00 | 82 | 1007.4 |
| 20260503050249 | 49 | 225 | 3.0 | 8.0 | 0.00 | 0.00 | 0.00 | 82 | 1007.4 |
| 20260503045744 | 49 | 11 | 1.0 | 7.0 | 0.00 | 0.00 | 0.00 | 82 | 1007.3 |
| 20260503045238 | 49 | 279 | 7.0 | 11.0 | 0.00 | 0.00 | 0.00 | 82 | 1007.3 |
| 20260503044733 | 49 | 243 | 4.0 | 8.0 | 0.00 | 0.00 | 0.00 | 83 | 1007.3 |
| 20260503044228 | 50 | 256 | 8.0 | 12.0 | 0.00 | 0.00 | 0.00 | 83 | 1007.2 |